This is the latest recevied weather packets stored in our database for station/object WA0LM. If no packets are shown the sender has not sent any weather packets the latest 10 day(s).
| Time | Temp. | Humidity | Pressure | Rain* | Wind** | Luminosity | Snow |
|---|---|---|---|---|---|---|---|
| 1777876383 | 15° C | 43% | 995.4 hPa | 0 mm | - | 0 W/m² | - |
| 1777876079 | 15° C | 45% | 995.4 hPa | 0 mm | - | 0 W/m² | - |
| 1777875775 | 15° C | 44% | 995.5 hPa | 0 mm | - | 0 W/m² | - |
| 1777875471 | 15° C | 45% | 995.7 hPa | 0 mm | - | 0 W/m² | - |
| 1777875168 | 15° C | 44% | 995.9 hPa | 0 mm | - | 0 W/m² | - |
| 1777874866 | 14.44° C | 45% | 995.9 hPa | 0 mm | - | 0 W/m² | - |
| 1777874561 | 14.44° C | 44% | 996 hPa | 0 mm | - | 0 W/m² | - |
| 1777874259 | 15° C | 44% | 996.1 hPa | 0 mm | - | 0 W/m² | - |
| 1777873956 | 15° C | 44% | 996.2 hPa | 0 mm | - | 0 W/m² | - |
| 1777873652 | 15° C | 43% | 996.3 hPa | 0 mm | - | 0 W/m² | - |
| 1777873351 | 15° C | 44% | 996.1 hPa | 0 mm | - | 0 W/m² | - |
| 1777873047 | 15° C | 45% | 996.4 hPa | 0 mm | - | 0 W/m² | - |
| 1777872744 | 15° C | 46% | 996.6 hPa | 0 mm | - | 0 W/m² | - |
| 1777872441 | 15° C | 43% | 996.6 hPa | 0 mm | - | 0 W/m² | - |
| 1777872140 | 15° C | 43% | 996.7 hPa | 0 mm | - | 0 W/m² | - |
| 1777871836 | 15° C | 43% | 996.8 hPa | 0 mm | - | 0 W/m² | - |
| 1777871532 | 15° C | 43% | 996.8 hPa | 0 mm | - | 0 W/m² | - |
| 1777871229 | 15.56° C | 44% | 996.9 hPa | 0 mm | - | 0 W/m² | - |
| 1777870926 | 15° C | 42% | 997 hPa | 0 mm | - | 0 W/m² | - |
| 1777870624 | 15° C | 43% | 997.3 hPa | 0 mm | - | 0 W/m² | - |
| 1777870324 | 15° C | 44% | 997 hPa | 0 mm | - | 0 W/m² | - |
| 1777870022 | 15° C | 44% | 997.2 hPa | 0 mm | - | 0 W/m² | - |
| 1777869719 | 15° C | 47% | 997.5 hPa | 0 mm | - | 0 W/m² | - |
| 1777869415 | 15° C | 46% | 997.6 hPa | 0 mm | - | 0 W/m² | - |
| 1777869112 | 15° C | 46% | 997.6 hPa | 0 mm | - | 0 W/m² | - |
* Rain latest hour (hover to see other rain measurements)
** Current wind speed in m/s (hover to see current wind gust speed)